AirNav   Phillips 66 Aviation Fuel
 
 350 users online  

XA63 AAF Heliport
Lucas, Texas, USA

GOING TO LUCAS?


FAA INFORMATION EFFECTIVE 21 JUNE 2018

Location

FAA Identifier: XA63
Lat/Long: 33-05-20.4300N / 096-35-31.4700W
33-05.340500N / 096-35.524500W
33.0890083 / -96.5920750
(estimated)
Elevation: 615 ft. / 187 m (estimated)
Time zone: UTC -5 (UTC -6 during Standard Time)
Zip code: 75002

Heliport Operations

Heliport use: Private use. Permission required prior to landing
Activation date: 03/2005
Control tower: no
ARTCC: FORT WORTH CENTER
FSS: FORT WORTH FLIGHT SERVICE STATION
Attendance: UNATNDD
Wind indicator: yes
Segmented circle: no

Heliport Communications

WX ASOS at TKI (5 nm N): 119.925 (972-548-8525)
WX AWOS-3 at F46 (12 nm SE): 121.25 (972-772-6699)
WX AWOS-3 at ADS (14 nm SW): PHONE 972-386-4855
WX ASOS at DAL (20 nm SW): PHONE 214-353-1551

Nearby radio navigation aids

VOR radial/distance  VOR name  Freq  Var
CVEr047/19.7COWBOY VOR/DME116.2006E
TTTr054/26.1MAVERICK VOR/DME113.1006E
FUZr062/31.9RANGER VORTAC115.7006E
BYPr208/32.3BONHAM VORTAC114.6006E

 
NDB name  Hdg/Dist  Freq  Var  ID
MELISA178/10.442103EVLY ...- .-.. -.--
MESQUITE346/17.124803EPQF .--. --.- ..-.
CADDO MILLS274/17.531606EMII -- .. ..
TRAVIS313/26.226006EAVZ .- ...- --..

Heliport Services

Runway Information

Helipad H1

Dimensions: 100 x 100 ft. / 30 x 30 m
Surface: turf
Traffic pattern: leftleft

Heliport Ownership and Management from official FAA records

Ownership: Privately-owned
Owner: LARRY W. ABSTON
4 ESTATES ROAD
LUCAS, TX 75002
Phone 972-442-1393
Manager: LARRY W. ABSTON
4 ESTATES ROAD
LUCAS, TX 75002
Phone 972-442-1393

Instrument Procedures

There are no published instrument procedures at XA63.

Some nearby airports with instrument procedures:

KTKI - McKinney National Airport (5 nm N)
F46 - Ralph M Hall/Rockwall Municipal Airport (12 nm SE)
KADS - Addison Airport (14 nm SW)
7F3 - Caddo Mills Municipal Airport (18 nm E)
KDAL - Dallas Love Field Airport (20 nm SW)
 
Loc | Ops | Rwys | IFR | FBO | Links
Com | Nav | Svcs | Stats | Notes

AirNav Hotels Sweepstakes
 
Area around XA63 (AAF Heliport)
 
Road maps at: MapQuest Bing Google
 
Aerial photo
No photo
 
Sectional chart

 
Airport distance calculator
Flying to AAF Heliport? Find the distance to fly.

From to XA63

Sunrise and sunset
Times for 22-Jun-2018
 Local
(UTC-5)
 Zulu
(UTC)
Morning civil twilight05:5010:50
Sunrise06:1911:19
Sunset20:3801:38
Evening civil twilight21:0602:06

Current date and time
Zulu (UTC)  22-Jun-2018 09:26:14
Local (UTC-5)  22-Jun-2018 04:26:14
 
METAR
KTKI 
6nm N 
220853Z AUTO 16005KT 10SM CLR 26/23 A2982 RMK AO2 SLP089 T02560228 55004
KF46 
12nm SE 
220915Z AUTO 21007KT 10SM CLR 27/24 A2983 RMK AO2 T02660237
KADS 
13nm SW 
220915Z AUTO 19007KT 10SM CLR 28/23 A2984 RMK AO2 T02770225
KDAL 
19nm SW 
220853Z 21007KT 180V240 10SM FEW200 28/23 A2981 RMK AO2 SLP087 T02830233 55003
TAF
KDAL 
19nm SW 
220520Z 2206/2306 19010KT P6SM FEW250 FM220900 22011KT P6SM SCT150 FM221400 26013KT P6SM SCT120 FM222100 18011KT P6SM FEW070 SCT250
NOTAMs
Click for the latest NOTAMs
NOTAMs are issued by the DoD/FAA and will open in a separate window not controlled by AirNav.

 

 
 

Would you like to see your business listed on this page?

 If your business provides an interesting product or service to pilots, flight crews, aircraft, or users of the AAF Heliport, you should consider listing it here.  To start the listing process, click on the button below
 
Add a business
 

Other Pages about AAF Heliport

Update a link
 
Copyright © AirNav, LLC. All rights reserved. Privacy Policy  Contact